Current Version              Previous Version:    01  02  03  04  05  06  07  08  09  10  11  12  13  14  15  16  17  18  19  20  21  22  23  24  25  26  27  28  29  30  
   31  32  33  34  35  36  37  38  39  40  41  42  43  44  45  46  47  48  49  50  51  52  53  54  55  56  57  58  59  60  

[Printable]
347
ASUS44 KEWX 211410
RWRTX
SOUTH TEXAS REGIONAL WEATHER ROUNDUP
NATIONAL WEATHER SERVICE AUSTIN/SAN ANTONIO TX
800 AM CST FRI NOV 21 2014

NOTE: "FAIR" INDICATED FEW OR NO CLOUDS BELOW 12,000 FEET WITH NO
SIGNIFICANT WEATHER AND/OR OBSTRUCTIONS TO VISIBILITY.

* - THESE STATIONS ARE NOT NWS OR FAA STATIONS...AND ARE NOT SUBJECT
    TO NWS AND FAA QUALITY CONTROL.

TXZ171-172-183>190-211500-
TEXAS HILL COUNTRY AND EDWARDS PLATEAU

CITY           SKY/WX    TMP DP  RH WIND       PRES   REMARKS
JUNCTION       FOG       50  49  96 CALM      30.07R VSB 3/4
*LLANO         FOG       61  61 100 CALM      30.12R VSB 1/4
BURNET         CLOUDY    62  60  93 CALM      30.11R
*HORSESHOE BAY FOG       56  56 100 CALM      30.09R VSB 1/4
*KERRVILLE     CLOUDY    63  60  93 S12       30.09R
*FREDERICKSBRG CLOUDY    63  60  91 S5        30.09R
*ROCKSPRINGS   MOCLDY    61  59  94 MISG      30.09R
*BOERNE STAGE  CLOUDY    63  61  94 S6        30.10R VSB<1/4
*CASTROVILLE   CLOUDY    65  64  99 SE6       30.09R FOG
HONDO          CLOUDY    59  32  36 SE5       30.09R FOG
*UVALDE        FOG       65  65  99 E5        30.07R VSB 1/4
DEL RIO        FOG       58  58 100 CALM      30.04R VSB<1/4
LAUGHLIN AFB   FOG       61  61 100 SE5       30.05R VSB<1/4
CARRIZO SPRGS  CLOUDY    63  63 100 SE5       30.04R FOG
$$

TXZ173-191>194-202-209-217>225-228-211500-
CENTRAL AND SOUTH CENTRAL TEXAS

CITY           SKY/WX    TMP DP  RH WIND       PRES   REMARKS
GEORGETOWN     CLOUDY    63  63 100 SE3       30.09R FOG
AUSTIN/BERGSTM CLOUDY    64  64 100 S5        30.09R
AUSTIN/MABRY   CLOUDY    65  64  97 S3        30.10R FOG
*AUSTIN/EXEC   CLOUDY    64  64 100 S3        30.10R FOG
*LAGO VISTA    CLOUDY    64  63  95 CALM      30.10R FOG
SAN MARCOS     CLOUDY   N/A N/A N/A S6        30.09R FOG
NEW BRAUNFELS  LGT RAIN  67  64  90 S8        30.07R FOG
RANDOLPH AFB   CLOUDY    66  64  94 S10       30.08R FOG
PT SAN ANTONIO CLOUDY    65  64  99 SE3       30.07R FOG
SAN ANTONIO    DRIZZLE   66  64  93 S7        30.09R FOG
STINSON FIELD  CLOUDY    65  64  97 SE3       30.07R FOG
*PLEASANTON    CLOUDY    65  64  97 SE6       30.08R
*LA GRANGE     CLOUDY    64  64 100 CALM      30.09R FOG
*GIDDINGS      FOG       62  61  97 SE3       30.14R VSB 1
*GONZALES      FOG       65  65  99 SE5       30.09R VSB 1/4
$$

TXZ163>164-176>182-195>201-210>213-226-227-235-211500-
SOUTHEAST TEXAS

CITY           SKY/WX    TMP DP  RH WIND       PRES   REMARKS
COLLEGE STN    LGT RAIN  62  61  96 SE7       30.12R
*BRYAN         CLOUDY    62  61  98 SE6       30.13R
*CALDWELL      CLOUDY    61  61 100 E7        30.14R FOG
*CROCKETT      LGT RAIN  63  63 100 SE5       30.18R VSB 1
*BRENHAM       LGT RAIN  64  63  97 CALM      30.13R
HUNTSVILLE     RAIN      64  61  90 SE7G20    30.14R FOG
CONROE         CLOUDY    63  61  93 SE10      30.15R
HOUSTON BUSH   LGT RAIN  64  63  96 SE15      30.13R
HOUSTON HOBBY  PTSUNNY   64  63  96 SE6       30.14R
*HOUSTON SW AP DRIZZLE   55  55 100 E5        30.14R
PEARLAND       LGT RAIN  65  63  93 E5        30.16R FOG
HOUSTON HOOKS  CLOUDY    64  63  96 SE8G17    30.13R FOG
ELLINGTON FLD  CLOUDY    63  61  94 CALM      30.16R
SUGAR LAND     CLOUDY    66  64  93 SE8       30.12R
*HOUSTON EXEC  CLOUDY    64 N/A N/A SE9       30.14R
*CLEVELAND MUN NOT AVBL
*WHARTON       CLOUDY    65  64  97 E6        30.12R FOG
*COLUMBUS      CLOUDY    64  64  99 E3        30.11R FOG
$$

TXZ214>216-236>238-211500-
THE UPPER TEXAS COAST

CITY           SKY/WX    TMP DP  RH WIND       PRES   REMARKS
*ORANGE        CLOUDY    62  60  93 E9G17     30.21R
PORT ARTHUR    CLOUDY    62  59  90 E12       30.18R
GALVESTON      CLOUDY    67  63  87 SE15      30.14R
ANGLETON       LGT RAIN  64  64 100 E8        30.12R
*BAY CITY      RAIN      67  67  99 CALM      30.11R
PALACIOS       PTSUNNY   66  64  93 SE12      30.10R
$$

TXZ229>234-239>247-211500-
TEXAS COASTAL BEND AND RIO GRANDE PLAINS

CITY           SKY/WX    TMP DP  RH WIND       PRES   REMARKS
VICTORIA       CLOUDY    67  65  93 CALM      30.10R FOG
*BEEVILLE      CLOUDY    66  66 100 CALM      30.08R
ROCKPORT       CLOUDY    65  64  97 CALM      30.08R FOG
*PORT ARANSAS  RAIN      66  65  98 CALM      30.07R VSB 1
*PORT LAVACA   CLOUDY    66  65  97 SE6       30.09R
*INGLESIDE     CLOUDY    62  60  94 SE3       30.07R FOG
CORPUS CHRISTI PTSUNNY   67  65  93 SE5       30.07R
CORPUS NAS     CLOUDY    67  66  97 E5        30.07R FOG
*ROBSTOWN      CLOUDY    68  67  97 E3        30.07R
ALICE          LGT RAIN  68  67  96 SE3       30.06R FOG
KINGSVILLE NAS LGT RAIN  68  68 100 CALM      30.07R
COTULLA        CLOUDY   N/A N/A N/A SE7       30.06R
*FAITH RANCH   CLOUDY    64  64 100 SE6       30.05R
LAREDO         CLOUDY    67  67 100 SE5       30.07R
$$

TXZ248>255-211500-
DEEP SOUTH TEXAS

CITY           SKY/WX    TMP DP  RH WIND       PRES   REMARKS
BROWNSVILLE    CLOUDY    69  68  96 SE5       30.07R
PORT ISABEL    PTSUNNY   70  68  93 SE5       30.06R FOG
*SOUTH PADRE   CLOUDY    68  66  94 SE10      30.06R VSB 1
HARLINGEN      PTSUNNY   69  68  96 SE8       30.04S
*HEBBRONVILLE  HVY RAIN  67  66  96 SE8       30.06R
MCALLEN        LGT RAIN  69  67  93 SE10      30.05R FOG
*WESLACO       CLOUDY    69  66  92 SE8       30.04S
FALFURRIAS     CLOUDY    69  66  93 SE7       30.06R
EDINBURG       CLOUDY    71  67  89 SE9       30.05R
*ZAPATA        CLOUDY    67  66  99 CALM      30.04R
$$

TXZ213>215-236>238-242>244-246-247-251-254-255-211500-
CMAN STATIONS

STATION/POSITION TIME  TEMP    WIND        PRES    WAVE
                       AIR SEA DIR/SP/G            HT/PER
                 (UTC) (F)     (DEG/KT/KT) (MB)    (FT/S)
SABINE PASS      1400   62 58  120/ 10/ 12 1021.7
SEA RIM ST PARK  1400   63     120/  8/ 11 1022.4
NORTH JETTY/GLS  1400   63 59  140/ 13/ 14   N/A
EAGLE POINT      1400   60 55  110/  8/  9 1020.6
MORGANS POINT    1400   62     110/ 11/ 15 1020.6
MISSION/ARANSAS  1300          140/  4     1019.0
PORT O`CONNOR    1400          110/  9/ 11   N/A
PORT ARANSAS     1400   67 63  100/  3/  3 1018.9
MALAQUITE BEACH  1400   67 65  110/  5/  5 1017.6
BAFFIN BAY       1400   67 69  130/  8/ 10 1017.9
PORT ISABEL      1400   70 61  150/  8/ 10 1018.0
$$

GMZ080-GMZ150>470-211500-
OFFSHORE BUOY REPORTS

STATION/POSITION TIME  TEMP    WIND        PRES    WAVE
                       AIR SEA DIR/SP/G            HT/PER
                 (UTC) (F)     (DEG/KT/KT) (MB)    (FT/S)
20 E GALVESTON   1400   65 61  120/ 14/ 16 1020.3    4/ 7
90 E PT ARANSAS  1400   73 73  150/ 21/ 25 1019.3    7/ 7
35 NE PT MANSFLD 1400   75 74  150/ 19/ 23 1017.7    7/ 7
200 E PT ISABEL  1400   73 75  120/ 16/ 17 1020.5    4/ 5
$$